Estación de Illapel

Ultimos registro cada 15 minutos 32
Estación Fecha / Hora Temperatura Humedad Lluvia Velocidad Dirección Radiación Presion
32 Illapel 06-05-2026 07:45 8,1 36 0 0 100 16 944,5
31 Illapel 06-05-2026 07:30 8,1 35 0 0 100 7 946,2
30 Illapel 06-05-2026 07:15 8,2 35 0 0 100 0 942,5
29 Illapel 06-05-2026 07:00 8,4 35 0 0 100 0 939,8
28 Illapel 06-05-2026 06:45 8,5 35 0 0 99 0 938,1
27 Illapel 06-05-2026 06:30 8,5 36 0 0 100 0 939,7
26 Illapel 06-05-2026 06:15 8,6 35 0 0,4 94 0 938,1
25 Illapel 06-05-2026 06:00 8,8 35 0 0,9 102 0 937
24 Illapel 06-05-2026 05:45 9,2 35 0 0 92 0 937,6
23 Illapel 06-05-2026 05:30 9,3 35 0 1,8 131 0 934,9
22 Illapel 06-05-2026 05:15 9,5 35 0 0 121 0 932,3
21 Illapel 06-05-2026 05:00 9,8 35 0 0 117 0 922
20 Illapel 06-05-2026 04:45 9,8 35 0 0 96 0 915,6
19 Illapel 06-05-2026 04:30 9,9 35 0 0 92 0 897,4
18 Illapel 06-05-2026 04:15 9,8 35 0 0 92 0 925,6
17 Illapel 06-05-2026 04:00 9,8 35 0 0 76 0 930,6
16 Illapel 06-05-2026 03:45 9,8 34 0 0 75 0 932,4
15 Illapel 06-05-2026 03:30 10,1 34 0 0 98 0 932,1
14 Illapel 06-05-2026 03:15 10,4 34 0 0 82 0 930,6
13 Illapel 06-05-2026 03:00 10,4 34 0 0 308 0 934
12 Illapel 06-05-2026 02:45 10,4 34 0 0 308 0 933,6
11 Illapel 06-05-2026 02:30 10,6 34 0 0 308 0 931,6
10 Illapel 06-05-2026 02:15 10,7 34 0 0 308 0 931,8
9 Illapel 06-05-2026 02:00 10,9 34 0 0 302 0 1005,7
8 Illapel 06-05-2026 01:45 11 34 0 0 299 0 1005,7
7 Illapel 06-05-2026 01:30 11,1 34 0 0 298 0 1005,7
6 Illapel 06-05-2026 01:15 11,2 34 0 0 298 0 1005,7
5 Illapel 06-05-2026 01:00 11,2 34 0 0 298 0 1005,7
4 Illapel 06-05-2026 00:45 11,2 35 0 0 298 0 1005,7
3 Illapel 06-05-2026 00:30 11,3 37 0 0 298 0 1005,7
2 Illapel 06-05-2026 00:15 11,4 37 0 0 297 0 1005,7
1 Illapel 06-05-2026 00:00 11,5 37 0 0 294 0 1005,7